Showing default

BANE, 58465

Orbit data source: Space-Track

BANE, 58465 is a payload satellite owned by York Space Sys (US) in SSO that was launched on Fri, 01 Dec 2023 UTC via an FALCON 9 launch vehicle from the Air Force Western Test Range (AFWTR). Payload-class satellites include a variety of spacecraft equipped with specific instruments for various scientific and technological missions. These include communications satellites like Starlink; space stations such as the ISS; scientific satellites like the Hubble; Earth observation satellites from companies like Planet Labs, Umbra, and HawkEye 360; GPS; miniature CubeSats for education and research; and military/defense satellites.

Loading next visibility...
Identifier
58465, 2023-185D
Orbit
SSO
Last TLE update
8 hours ago
Origin
Manufacturer
York Space Sys
Mission
Operational Commercial Technology
Bus & Motor
S-CLASS, Unknown motor
Mass
~150 kg wet, ~150 kg dry
Launch date (UTC)
2023-12-01 (1 year ago)
Launch vehicle
FALCON 9
Launch site
Air Force Western Test Range (AFWTR)
Object type
Payload
Rocket body
Debris
Shape & HBR
Box + 4 Pan, 2 m
Radar Cross Section
1.244 m², Medium (>0.1 m² and < 1m²)

Expand to show TLE details & history

TLE from 8 hours ago
0 BANE
1 58465U 23185D   25131.20153271  .00021312  00000-0  54459-3 0  9999
2 58465  97.3823 202.1172 0007102 186.0745 174.0416 15.39458239 80244
Epoch: 2025-05-11T04:50Z
Definitive object data (Epoch: 2025-05-11T04:50:12.426Z)
Latitude
0.00002°
Longitude
-99.66694°
Altitude
455.65 km
Speed
7.636 km/s
True Right ascension
13h 28m 28s
True Declination
0° 00' 00"
Sunlit
Object was in full shadow at TLE epoch
Visualization TLE readout
Latitude
46.61089°
Longitude
88.5187°
Altitude
451.926 km
Speed
7.647 km/s
Apparent Right ascension
05h 52m 59s
Apparent Declination
9° 14' 27"
Sunlit
Object is in daylight
Visualization observer readout
Local Sidereal Time
21:30:36
Azimuth
58.499° ENE
Elevation
-19.732°
Doppler factor
1
Orbital elements
Apogee altitude
449.495 km
Perigee altitude
439.804 km
Semi-major axis
6,822.786 km
Eccentricity
0.0007102
Inclination
97.3823°
RAAN
202.1172°
Arg. of periapsis
186.0745°
True anomaly
174.05004°
Mean anomaly
174.0416°
Eccentric anomaly
174.04582°
Mean motion
3.85124 °/min
BSTAR
0.00054459
Orbital period
93.48 mins
Loading maneuver chart data...
Loading SW <> Apogee altitude chart data...
Loading historical data...
Loading historical data...
Loading historical data...
Loading historical data...
Loading historical data...
Loading historical data...
Loading historical data...

BANE Visibility forecast

Observer location: undefined°, undefined°

Span
Click to sort rows by Start time (UTC) header in descending order
Start Az.
Max El. time (UTC)
Max El. Az.
Max El.
End time (UTC)
End Az.
5 mins2025-05-11 17:52:46.096Z354.339° N2025-05-11 17:54:46.096Z305.279° NW35.19°2025-05-11 17:57:46.096Z213.709° SW
5 mins2025-05-12 04:22:46.096Z137.301° SSE2025-05-12 04:24:46.096Z82.531° E33.051°2025-05-12 04:27:46.096Z5.07° NNE
|